SL-8 DEB, 28706

Orbit data source: Space-Track

SL-8 DEB, 28706 is space debris in LEO originally from a launch on Tue, 27 Feb 1990 UTC launched from the Plesetsk Missile And Space Complex (PKMTR). Debris objects in space refer to the collection of defunct objects orbiting the Earth. Examples of debris include non-operational satellites, rocket bodies, and fragments generated from explosions, collisions, or faulty payload assembly.

Loading next visibility...
Identifier
28706, 1990-017C
Orbit
LEO
Country
Flag of CISCIS
Related business
Manufacturer
Polyot
Mission
Spacecraft
Bus & Motor
Unknown
Mass
Unknown
Launch date (UTC)
1990-02-27 (36 years ago)
Launch vehicle
Unknown
Launch site
Plesetsk Missile And Space Complex (PKMTR)
Object type
Payload
Rocket body
Debris
Shape & HBR
Unknown shape, 0.2 m
Radar Cross Section
Medium (>0.1 m² and <1 m²)

Expand to show TLE details & history
Last TLE update: 2 days ago

TLE from 2 days ago
0 SL-8 DEB
1 28706U 90017C   26171.28373103  .00001181  00000-0  95754-3 0  9998
2 28706  83.0864 101.7254 0081282  20.2617 340.1740 13.87754277 58455
Epoch: 2026-06-20T06:48Z
TLE epoch observation values (Epoch: 2026-06-20T06:48:34.360Z)
Latitude
-0.00007°
Longitude
91.08165°
Altitude
883.547 km
Speed
7.439 km/s
True Right ascension
06h 46m 54s
True Declination
0° 00' 00"
Sunlit
Object was in daylight at epoch
Visualization orbit readout
Latitude
Unknown
Longitude
Unknown
Altitude
Unknown
Speed
Unknown
Apparent Right ascension
Unknown
Apparent Declination
Unknown
Sunlit
N/A
Visualization observer readout
Local Sidereal Time
23:08:37
Azimuth
Unknown
Elevation
Unknown
Doppler factor
Unknown
Orbital elements
Apogee altitude
993.068 km
Perigee altitude
874.205 km
Semi-major axis
7,311.774 km
Eccentricity
0.00813
Inclination
83.0864°
RAAN
101.7254°
Arg. of periapsis
20.2617°
True anomaly
339.85505°
Mean anomaly
340.174°
Eccentric anomaly
340.01483°
Mean motion
3.47144 °/min
Orbital period
103.7 mins
BSTAR
0.00095754
Loading maneuver chart data...
Computing Atmospheric mass density...
Loading historical data...
Loading historical data...
Loading historical data...
Loading historical data...
Loading historical data...
Loading historical data...
Loading historical data...
Other satellites on launch #17 in the year 1990 (1990-02-27 UTC)

Documentation

Showing up to 5 results
|